HELIOS 1B

Last updated on Thu Oct 30 2025 00:02:15 GMT+0000 (Coordinated Universal Time)

1 25977U 99064A 25302.46343480 .00002818 00000+0 32111-3 0 9991 2 25977 98.1755 195.8237 0002391 103.0073 257.1409 14.87008904665759
UTC large
Height (km)
Speed (km/s)
/
Latitude / Longitude
Inclination (degrees)
Orbital Period (minutes)
Azimuth
Elevation
Range (km)
Doppler Factor

Next 0 passes for location: London (51.5072 / 0.1276)

Sorry there are no passes over London.